[TLELIST] Archives

 

[TLELIST] Current TLEs

July 26th 2025 PDT

0 HST 1 20580U 90037B 25206.97136623 .00005562 00000-0 20415-3 0 9999 2 20580 28.4671 141.9545 0002032 155.2728 204.7964 15.25659578738611 0 ISS (ZARYA) 1 25544U 98067A 25207.13429386 .00011750 00000-0 21275-3 0 9996 2 25544 51.6350 114.0333 0002014 117.9284 242.1909 15.50106102521204 0 CXO 1 25867U 99040B 25209.10722987 .00000562 00000-0 00000+0 0 9996 2 25867 50.3751 127.8524 8359077 310.0488 0.5780 0.37806077 27257 ...Continue Reading

[TLELIST] Current TLEs

July 25th 2025 PDT

0 HST 1 20580U 90037B 25206.18639832 .00005845 00000-0 21503-3 0 9995 2 20580 28.4670 147.2783 0002058 146.9713 213.1010 15.25650446738758 0 ISS (ZARYA) 1 25544U 98067A 25206.16725053 .00012111 00000-0 21923-3 0 9990 2 25544 51.6348 118.8254 0002056 114.0852 246.0352 15.50079803521055 0 CXO 1 25867U 99040B 25209.10722987 .00000562 00000-0 00000+0 0 9996 2 25867 50.3751 127.8524 8359077 310.0488 0.5780 0.37806077 27257 ...Continue Reading

[TLELIST] Current TLEs

July 25th 2025 PDT

0 HST 1 20580U 90037B 25206.18639832 .00005845 00000-0 21503-3 0 9995 2 20580 28.4670 147.2783 0002058 146.9713 213.1010 15.25650446738758 0 ISS (ZARYA) 1 25544U 98067A 25206.16725053 .00012111 00000-0 21923-3 0 9990 2 25544 51.6348 118.8254 0002056 114.0852 246.0352 15.50079803521055 0 CXO 1 25867U 99040B 25209.10722987 .00000562 00000-0 00000+0 0 9996 2 25867 50.3751 127.8524 8359077 310.0488 0.5780 0.37806077 27257 ...Continue Reading

[TLELIST] Current TLEs

July 24th 2025 PDT

0 HST 1 20580U 90037B 25204.94352236 .00006102 00000-0 22493-3 0 9993 2 20580 28.4665 155.7071 0002113 133.7205 226.3565 15.25636074738301 0 ISS (ZARYA) 1 25544U 98067A 25204.82343111 .00009030 00000-0 16581-3 0 9992 2 25544 51.6344 125.4774 0002359 111.9505 304.3927 15.50035709520848 0 CXO 1 25867U 99040B 25206.46147460 .00000589 00000-0 00000-0 0 9999 2 25867 50.3266 127.9554 8365602 310.0224 0.4270 0.37802997 16080 ...Continue Reading

[TLELIST] Current TLEs

July 23rd 2025 PDT

0 HST 1 20580U 90037B 25203.56980264 .00004901 00000-0 17918-3 0 9999 2 20580 28.4663 165.0233 0002161 120.6752 239.4055 15.25619513738092 0 ISS (ZARYA) 1 25544U 98067A 25204.16864096 .00010724 00000-0 19544-3 0 9993 2 25544 51.6344 128.7280 0002115 106.2807 253.8414 15.50025731520740 0 CXO 1 25867U 99040B 25206.46147460 .00000589 00000-0 00000-0 0 9999 2 25867 50.3266 127.9554 8365602 310.0224 0.4270 0.37802997 16080 ...Continue Reading

[TLELIST] Current TLEs

July 20th 2025 PDT

HST 1 20580U 90037B 25200.95315838 .00004205 00000-0 15268-3 0 9991 2 20580 28.4664 182.7684 0002227 96.9851 263.0997 15.25595744737699 ISS (ZARYA) 1 25544U 98067A 25201.20284932 .00007319 00000-0 13625-3 0 9990 2 25544 51.6337 143.4222 0002199 96.8401 263.2838 15.49966786520284 CXO 1 25867U 99040B 25203.81570392 .00000586 00000-0 00000-0 0 9996 2 25867 50.2686 128.0756 8371150 309.9719 0.3202 0.37802167 16074 ...Continue Reading

[TLELIST] Current TLEs

July 19th 2025 PDT

HST 1 20580U 90037B 25199.64482148 .00003707 00000-0 13368-3 0 9998 2 20580 28.4666 191.6407 0002234 84.8118 275.2731 15.25584126737494 ISS (ZARYA) 1 25544U 98067A 25200.17124576 .00006153 00000-0 11590-3 0 9996 2 25544 51.6335 148.5331 0002204 94.5231 265.6010 15.49949392520127 CXO 1 25867U 99040B 25201.17133178 .00000577 00000-0 00000+0 0 9999 2 25867 50.2044 128.2122 8375655 309.9049 0.4385 0.37804860 27225 ...Continue Reading

[TLELIST] Current TLEs

July 18th 2025 PDT

HST 1 20580U 90037B 25198.27105692 .00003718 00000-0 13415-3 0 9997 2 20580 28.4667 200.9564 0002209 71.8388 288.2447 15.25574939737545 ISS (ZARYA) 1 25544U 98067A 25199.20410805 .00007024 00000-0 13123-3 0 9992 2 25544 51.6336 153.3248 0002239 91.7860 268.3385 15.49935069519976 CXO 1 25867U 99040B 25201.17133178 .00000577 00000-0 00000+0 0 9999 2 25867 50.2044 128.2122 8375655 309.9049 0.4385 0.37804860 27225 ...Continue Reading

[TLELIST] Current TLEs

July 18th 2025 PDT

HST 1 20580U 90037B 25198.27105692 .00003718 00000-0 13415-3 0 9997 2 20580 28.4667 200.9564 0002209 71.8388 288.2447 15.25574939737545 ISS (ZARYA) 1 25544U 98067A 25199.20410805 .00007024 00000-0 13123-3 0 9992 2 25544 51.6336 153.3248 0002239 91.7860 268.3385 15.49935069519976 CXO 1 25867U 99040B 25201.17133178 .00000577 00000-0 00000+0 0 9999 2 25867 50.2044 128.2122 8375655 309.9049 0.4385 0.37804860 27225 ...Continue Reading

[TLELIST] Current TLEs

July 17th 2025 PDT

HST 1 20580U 90037B 25197.35520936 .00003234 00000-0 11565-3 0 9994 2 20580 28.4669 207.1671 0002188 62.2987 297.7829 15.25567339737141 ISS (ZARYA) 1 25544U 98067A 25198.23696061 .00005914 00000-0 11182-3 0 9993 2 25544 51.6342 158.1162 0002274 87.0874 273.0375 15.49919983519826 CXO 1 25867U 99040B 25201.17092660 .00000577 00000-0 00000+0 0 9999 2 25867 50.2045 128.2122 8375635 309.9047 0.3829 0.37805668 27221 ...Continue Reading
  • This mailing list is a public mailing list - anyone may join or leave, at any time.
  • This mailing list is announce-only.

International Space Station (ISS) / Hubble Space Telescope (HST) / Chandra X-Ray Observatory Orbital Data via EMAIL

Privacy Policy:

Private list